This is the latest recevied weather packets stored in our database for station/object KD6VEX-1. If no packets are shown the sender has not sent any weather packets the latest 10 day(s).
| Time | Temp. | Humidity | Pressure | Rain* | Wind** | Luminosity | Snow |
|---|---|---|---|---|---|---|---|
| 1777915803 | 17.78° C | 55% | 1015.4 hPa | 0 mm | - | - | - |
| 1777915501 | 17.78° C | 57% | 1015.4 hPa | 0 mm | - | - | - |
| 1777915203 | 17.22° C | 57% | 1015.5 hPa | 0 mm | - | - | - |
| 1777914901 | 17.22° C | 59% | 1015.4 hPa | 0 mm | - | - | - |
| 1777914601 | 17.22° C | 60% | 1015.4 hPa | 0 mm | - | - | - |
| 1777914302 | 17.22° C | 60% | 1015.5 hPa | 0 mm | - | - | - |
| 1777914001 | 16.67° C | 61% | 1015.5 hPa | 0 mm | - | - | - |
| 1777913701 | 16.11° C | 62% | 1015.4 hPa | 0 mm | - | - | - |
| 1777913403 | 16.11° C | 62% | 1015.5 hPa | 0 mm | - | - | - |
| 1777913101 | 16.11° C | 63% | 1015.5 hPa | 0 mm | - | - | - |
| 1777912801 | 15.56° C | 65% | 1015.5 hPa | 0 mm | - | - | - |
| 1777912501 | 15.56° C | 65% | 1015.5 hPa | 0 mm | - | - | - |
| 1777912201 | 15.56° C | 65% | 1015.4 hPa | 0 mm | - | - | - |
| 1777911901 | 15° C | 68% | 1015.4 hPa | 0 mm | - | - | - |
| 1777911602 | 14.44° C | 68% | 1015.5 hPa | 0 mm | - | - | - |
| 1777911301 | 14.44° C | 73% | 1015.5 hPa | 0 mm | - | - | - |
| 1777911002 | 13.33° C | 77% | 1015.6 hPa | 0 mm | - | - | - |
| 1777910702 | 12.78° C | 78% | 1015.6 hPa | 0 mm | - | - | - |
| 1777910401 | 12.22° C | 81% | 1015.7 hPa | 0 mm | - | - | - |
| 1777910102 | 11.67° C | 81% | 1015.7 hPa | 0 mm | - | - | - |
| 1777909801 | 11.67° C | 82% | 1015.6 hPa | 0 mm | - | - | - |
| 1777909502 | 11.11° C | 83% | 1015.6 hPa | 0 mm | - | - | - |
| 1777909201 | 11.11° C | 83% | 1015.6 hPa | 0 mm | - | - | - |
| 1777908901 | 10.56° C | 85% | 1015.6 hPa | 0 mm | - | - | - |
| 1777908601 | 10.56° C | 84% | 1015.7 hPa | 0 mm | - | - | - |
* Rain latest hour (hover to see other rain measurements)
** Current wind speed in m/s (hover to see current wind gust speed)